| time (UTC) | temp F | wind direction | speed MPH | gust MPH | rain 1hr in | rain 24hr in | rain mn in | humidity % | barometer mb |
| 20260903200448 | 75 | 0 | 0.0 | 0.0 | 0.00 | 0.00 | 0.00 | 48 | 964.0 |
| 20260903195847 | 75 | 0 | 0.0 | 0.0 | 0.00 | 0.00 | 0.00 | 46 | 964.0 |
| 20260903195246 | 75 | 0 | 0.0 | 0.0 | 0.00 | 0.00 | 0.00 | 47 | 964.0 |
| 20260903194645 | 75 | 0 | 0.0 | 0.0 | 0.00 | 0.00 | 0.00 | 46 | 964.0 |
| 20260903194045 | 75 | 0 | 0.0 | 0.0 | 0.00 | 0.00 | 0.00 | 47 | 964.0 |
| 20260903193444 | 76 | 0 | 0.0 | 0.0 | 0.00 | 0.00 | 0.00 | 45 | 964.0 |
| 20260903192843 | 75 | 0 | 0.0 | 0.0 | 0.00 | 0.00 | 0.00 | 46 | 964.0 |
| 20260903192242 | 76 | 0 | 0.0 | 0.0 | 0.00 | 0.00 | 0.00 | 45 | 964.0 |
| 20260903191642 | 76 | 0 | 0.0 | 0.0 | 0.00 | 0.00 | 0.00 | 45 | 964.0 |
| 20260903191041 | 76 | 0 | 0.0 | 0.0 | 0.00 | 0.00 | 0.00 | 44 | 964.0 |
| 20260903190440 | 76 | 0 | 0.0 | 0.0 | 0.00 | 0.00 | 0.00 | 44 | 964.0 |
| 20260903185839 | 76 | 0 | 0.0 | 0.0 | 0.00 | 0.00 | 0.00 | 43 | 964.0 |
| 20260903185238 | 76 | 0 | 0.0 | 0.0 | 0.00 | 0.00 | 0.00 | 44 | 964.0 |
| 20260903184638 | 76 | 0 | 0.0 | 0.0 | 0.00 | 0.00 | 0.00 | 42 | 964.0 |
| 20260903184037 | 76 | 0 | 0.0 | 0.0 | 0.00 | 0.00 | 0.00 | 43 | 964.0 |
| 20260903183436 | 76 | 0 | 0.0 | 0.0 | 0.00 | 0.00 | 0.00 | 43 | 964.0 |
| 20260903182835 | 77 | 0 | 0.0 | 0.0 | 0.00 | 0.00 | 0.00 | 42 | 964.0 |
| 20260903182234 | 77 | 0 | 0.0 | 0.0 | 0.00 | 0.00 | 0.00 | 42 | 964.0 |
| 20260903181634 | 78 | 0 | 0.0 | 0.0 | 0.00 | 0.00 | 0.00 | 42 | 963.0 |
| 20260903181033 | 78 | 0 | 0.0 | 0.0 | 0.00 | 0.00 | 0.00 | 40 | 963.0 |
| 20260903180432 | 78 | 0 | 0.0 | 0.0 | 0.00 | 0.00 | 0.00 | 41 | 963.0 |
| 20260903175831 | 79 | 0 | 0.0 | 0.0 | 0.00 | 0.00 | 0.00 | 39 | 963.0 |
| 20260903175230 | 79 | 0 | 0.0 | 0.0 | 0.00 | 0.00 | 0.00 | 40 | 963.0 |
| 20260903174630 | 79 | 0 | 0.0 | 0.0 | 0.00 | 0.00 | 0.00 | 40 | 963.0 |
| 20260903174029 | 79 | 0 | 0.0 | 0.0 | 0.00 | 0.00 | 0.00 | 39 | 963.0 |
| 20260903173428 | 79 | 0 | 0.0 | 0.0 | 0.00 | 0.00 | 0.00 | 39 | 963.0 |
| 20260903172827 | 79 | 0 | 0.0 | 0.0 | 0.00 | 0.00 | 0.00 | 38 | 963.0 |
| 20260903172226 | 79 | 0 | 0.0 | 0.0 | 0.00 | 0.00 | 0.00 | 39 | 963.0 |
| 20260903171626 | 80 | 0 | 0.0 | 0.0 | 0.00 | 0.00 | 0.00 | 37 | 963.0 |
| 20260903171025 | 79 | 0 | 0.0 | 0.0 | 0.00 | 0.00 | 0.00 | 37 | 963.0 |
| 20260903170424 | 80 | 0 | 0.0 | 0.0 | 0.00 | 0.00 | 0.00 | 37 | 963.0 |
| 20260903165823 | 80 | 0 | 0.0 | 0.0 | 0.00 | 0.00 | 0.00 | 36 | 963.0 |
| 20260903165222 | 80 | 0 | 0.0 | 0.0 | 0.00 | 0.00 | 0.00 | 37 | 963.0 |
| 20260903164622 | 81 | 0 | 0.0 | 0.0 | 0.00 | 0.00 | 0.00 | 36 | 963.0 |
| 20260903164021 | 81 | 0 | 0.0 | 0.0 | 0.00 | 0.00 | 0.00 | 36 | 963.0 |
| 20260903163420 | 82 | 0 | 0.0 | 0.0 | 0.00 | 0.00 | 0.00 | 38 | 963.0 |
| 20260903162819 | 82 | 0 | 0.0 | 0.0 | 0.00 | 0.00 | 0.00 | 37 | 963.0 |
| 20260903162219 | 82 | 0 | 0.0 | 0.0 | 0.00 | 0.00 | 0.00 | 37 | 963.0 |
| 20260903161618 | 82 | 0 | 0.0 | 0.0 | 0.00 | 0.00 | 0.00 | 37 | 963.0 |
| 20260903161017 | 82 | 0 | 0.0 | 0.0 | 0.00 | 0.00 | 0.00 | 37 | 963.0 |
| 20260903160416 | 83 | 0 | 0.0 | 0.0 | 0.00 | 0.00 | 0.00 | 36 | 963.0 |
| 20260903155815 | 84 | 0 | 0.0 | 0.0 | 0.00 | 0.00 | 0.00 | 36 | 963.0 |
| 20260903155214 | 83 | 0 | 0.0 | 0.0 | 0.00 | 0.00 | 0.00 | 34 | 963.0 |
| 20260903154614 | 84 | 0 | 0.0 | 0.0 | 0.00 | 0.00 | 0.00 | 34 | 963.0 |
| 20260903154013 | 84 | 0 | 0.0 | 0.0 | 0.00 | 0.00 | 0.00 | 34 | 963.0 |
| 20260903153412 | 84 | 0 | 0.0 | 0.0 | 0.00 | 0.00 | 0.00 | 35 | 963.0 |
| 20260903152811 | 84 | 0 | 0.0 | 0.0 | 0.00 | 0.00 | 0.00 | 34 | 963.0 |
| 20260903152210 | 85 | 0 | 0.0 | 0.0 | 0.00 | 0.00 | 0.00 | 34 | 963.0 |
| 20260903151809 | 85 | 0 | 0.0 | 0.0 | 0.00 | 0.00 | 0.00 | 33 | 963.0 |
| 20260903151610 | 85 | 0 | 0.0 | 0.0 | 0.00 | 0.00 | 0.00 | 33 | 963.0 |
| 20260903151009 | 86 | 0 | 0.0 | 0.0 | 0.00 | 0.00 | 0.00 | 32 | 963.0 |
| 20260903150408 | 86 | 0 | 0.0 | 0.0 | 0.00 | 0.00 | 0.00 | 32 | 963.0 |
| 20260903145807 | 86 | 0 | 0.0 | 0.0 | 0.00 | 0.00 | 0.00 | 32 | 963.0 |
| 20260903145206 | 85 | 0 | 0.0 | 0.0 | 0.00 | 0.00 | 0.00 | 32 | 963.0 |
| 20260903144606 | 87 | 0 | 0.0 | 0.0 | 0.00 | 0.00 | 0.00 | 30 | 963.0 |
| 20260903144005 | 87 | 0 | 0.0 | 0.0 | 0.00 | 0.00 | 0.00 | 30 | 963.0 |
| 20260903143404 | 88 | 0 | 0.0 | 0.0 | 0.00 | 0.00 | 0.00 | 29 | 963.0 |
| 20260903142803 | 87 | 0 | 0.0 | 0.0 | 0.00 | 0.00 | 0.00 | 29 | 964.0 |
| 20260903142203 | 88 | 0 | 0.0 | 0.0 | 0.00 | 0.00 | 0.00 | 28 | 964.0 |
| 20260903141602 | 90 | 0 | 0.0 | 0.0 | 0.00 | 0.00 | 0.00 | 27 | 964.0 |
| 20260903141001 | 90 | 0 | 0.0 | 0.0 | 0.00 | 0.00 | 0.00 | 27 | 964.0 |
| 20260903140400 | 91 | 0 | 0.0 | 0.0 | 0.00 | 0.00 | 0.00 | 26 | 964.0 |
| 20260903135759 | 94 | 0 | 0.0 | 0.0 | 0.00 | 0.00 | 0.00 | 25 | 964.0 |
| 20260903135158 | 101 | 0 | 0.0 | 0.0 | 0.00 | 0.00 | 0.00 | 20 | 964.0 |
| 20260903134558 | 94 | 0 | 0.0 | 0.0 | 0.00 | 0.00 | 0.00 | 24 | 964.0 |
| 20260903133957 | 91 | 0 | 0.0 | 0.0 | 0.00 | 0.00 | 0.00 | 26 | 964.0 |
| 20260903133356 | 93 | 0 | 0.0 | 0.0 | 0.00 | 0.00 | 0.00 | 26 | 964.0 |
| 20260903132755 | 95 | 0 | 0.0 | 0.0 | 0.00 | 0.00 | 0.00 | 24 | 964.0 |
| 20260903132154 | 94 | 0 | 0.0 | 0.0 | 0.00 | 0.00 | 0.00 | 25 | 964.0 |
| 20260903131553 | 100 | 0 | 0.0 | 0.0 | 0.00 | 0.00 | 0.00 | 21 | 964.0 |
| 20260903130953 | 91 | 0 | 0.0 | 0.0 | 0.00 | 0.00 | 0.00 | 27 | 964.0 |
| 20260903130352 | 98 | 0 | 0.0 | 0.0 | 0.00 | 0.00 | 0.00 | 23 | 964.0 |
| 20260903125751 | 87 | 0 | 0.0 | 0.0 | 0.00 | 0.00 | 0.00 | 30 | 964.0 |
| 20260903125150 | 83 | 0 | 0.0 | 0.0 | 0.00 | 0.00 | 0.00 | 34 | 964.0 |
| 20260903124549 | 82 | 0 | 0.0 | 0.0 | 0.00 | 0.00 | 0.00 | 34 | 964.0 |
| 20260903123949 | 84 | 0 | 0.0 | 0.0 | 0.00 | 0.00 | 0.00 | 33 | 964.0 |
| 20260903123348 | 85 | 0 | 0.0 | 0.0 | 0.00 | 0.00 | 0.00 | 34 | 964.0 |
| 20260903122747 | 85 | 0 | 0.0 | 0.0 | 0.00 | 0.00 | 0.00 | 33 | 964.0 |
| 20260903122146 | 85 | 0 | 0.0 | 0.0 | 0.00 | 0.00 | 0.00 | 33 | 964.0 |
| 20260903121545 | 85 | 0 | 0.0 | 0.0 | 0.00 | 0.00 | 0.00 | 34 | 964.0 |
| 20260903120344 | 84 | 0 | 0.0 | 0.0 | 0.00 | 0.00 | 0.00 | 35 | 964.0 |
| 20260903115743 | 83 | 0 | 0.0 | 0.0 | 0.00 | 0.00 | 0.00 | 36 | 964.0 |
| 20260903115142 | 83 | 0 | 0.0 | 0.0 | 0.00 | 0.00 | 0.00 | 36 | 964.0 |
| 20260903114541 | 82 | 0 | 0.0 | 0.0 | 0.00 | 0.00 | 0.00 | 36 | 964.0 |
| 20260903113941 | 83 | 0 | 0.0 | 0.0 | 0.00 | 0.00 | 0.00 | 37 | 964.0 |
| 20260903113340 | 83 | 0 | 0.0 | 0.0 | 0.00 | 0.00 | 0.00 | 36 | 964.0 |
| 20260903112739 | 83 | 0 | 0.0 | 0.0 | 0.00 | 0.00 | 0.00 | 37 | 964.0 |
| 20260903112138 | 83 | 0 | 0.0 | 0.0 | 0.00 | 0.00 | 0.00 | 37 | 964.0 |
| 20260903111537 | 82 | 0 | 0.0 | 0.0 | 0.00 | 0.00 | 0.00 | 37 | 964.0 |
| 20260903110937 | 81 | 0 | 0.0 | 0.0 | 0.00 | 0.00 | 0.00 | 37 | 964.0 |
| 20260903110336 | 83 | 0 | 0.0 | 0.0 | 0.00 | 0.00 | 0.00 | 38 | 964.0 |
| 20260903105735 | 82 | 0 | 0.0 | 0.0 | 0.00 | 0.00 | 0.00 | 39 | 964.0 |
| 20260903105134 | 81 | 0 | 0.0 | 0.0 | 0.00 | 0.00 | 0.00 | 40 | 964.0 |
| 20260903103933 | 79 | 0 | 0.0 | 0.0 | 0.00 | 0.00 | 0.00 | 42 | 964.0 |
| 20260903103332 | 78 | 0 | 0.0 | 0.0 | 0.00 | 0.00 | 0.00 | 42 | 965.0 |
| 20260903102731 | 79 | 0 | 0.0 | 0.0 | 0.00 | 0.00 | 0.00 | 42 | 965.0 |
| 20260903102130 | 79 | 0 | 0.0 | 0.0 | 0.00 | 0.00 | 0.00 | 43 | 965.0 |
| 20260903101529 | 79 | 0 | 0.0 | 0.0 | 0.00 | 0.00 | 0.00 | 43 | 965.0 |
| 20260903100929 | 79 | 0 | 0.0 | 0.0 | 0.00 | 0.00 | 0.00 | 43 | 965.0 |
| 20260903100328 | 79 | 0 | 0.0 | 0.0 | 0.00 | 0.00 | 0.00 | 42 | 965.0 |
| 20260903095727 | 78 | 0 | 0.0 | 0.0 | 0.00 | 0.00 | 0.00 | 44 | 965.0 |
| 20260903095126 | 76 | 0 | 0.0 | 0.0 | 0.00 | 0.00 | 0.00 | 45 | 965.0 |
| 20260903094526 | 77 | 0 | 0.0 | 0.0 | 0.00 | 0.00 | 0.00 | 46 | 965.0 |
| 20260903093925 | 77 | 0 | 0.0 | 0.0 | 0.00 | 0.00 | 0.00 | 47 | 965.0 |
| 20260903093324 | 77 | 0 | 0.0 | 0.0 | 0.00 | 0.00 | 0.00 | 47 | 965.0 |
| 20260903092723 | 77 | 0 | 0.0 | 0.0 | 0.00 | 0.00 | 0.00 | 46 | 965.0 |
| 20260903092122 | 76 | 0 | 0.0 | 0.0 | 0.00 | 0.00 | 0.00 | 47 | 965.0 |
| 20260903091522 | 75 | 0 | 0.0 | 0.0 | 0.00 | 0.00 | 0.00 | 49 | 965.0 |
| 20260903090921 | 77 | 0 | 0.0 | 0.0 | 0.00 | 0.00 | 0.00 | 48 | 965.0 |
| 20260903090320 | 76 | 0 | 0.0 | 0.0 | 0.00 | 0.00 | 0.00 | 49 | 965.0 |
| 20260903085719 | 76 | 0 | 0.0 | 0.0 | 0.00 | 0.00 | 0.00 | 48 | 965.0 |
| 20260903085118 | 75 | 0 | 0.0 | 0.0 | 0.00 | 0.00 | 0.00 | 49 | 965.0 |
| 20260903084518 | 74 | 0 | 0.0 | 0.0 | 0.00 | 0.00 | 0.00 | 50 | 965.0 |
| 20260903083917 | 73 | 0 | 0.0 | 0.0 | 0.00 | 0.00 | 0.00 | 51 | 965.0 |
| 20260903083316 | 74 | 0 | 0.0 | 0.0 | 0.00 | 0.00 | 0.00 | 52 | 965.0 |
| 20260903082715 | 74 | 0 | 0.0 | 0.0 | 0.00 | 0.00 | 0.00 | 51 | 965.0 |
| 20260903082114 | 74 | 0 | 0.0 | 0.0 | 0.00 | 0.00 | 0.00 | 51 | 965.0 |
| 20260903081514 | 73 | 0 | 0.0 | 0.0 | 0.00 | 0.00 | 0.00 | 52 | 965.0 |
| 20260903080913 | 73 | 0 | 0.0 | 0.0 | 0.00 | 0.00 | 0.00 | 52 | 965.0 |
| 20260903080312 | 72 | 0 | 0.0 | 0.0 | 0.00 | 0.00 | 0.00 | 53 | 965.0 |
| 20260903075711 | 73 | 0 | 0.0 | 0.0 | 0.00 | 0.00 | 0.00 | 53 | 965.0 |
| 20260903075111 | 72 | 0 | 0.0 | 0.0 | 0.00 | 0.00 | 0.00 | 55 | 965.0 |
| 20260903074510 | 71 | 0 | 0.0 | 0.0 | 0.00 | 0.00 | 0.00 | 56 | 965.0 |
| 20260903072707 | 71 | 0 | 0.0 | 0.0 | 0.00 | 0.00 | 0.00 | 57 | 965.0 |
| 20260903072107 | 71 | 0 | 0.0 | 0.0 | 0.00 | 0.00 | 0.00 | 57 | 965.0 |
| 20260903071736 | 71 | 0 | 0.0 | 0.0 | 0.00 | 0.00 | 0.00 | 58 | 965.0 |
| 20260903071506 | 71 | 0 | 0.0 | 0.0 | 0.00 | 0.00 | 0.00 | 58 | 965.0 |
| 20260903070905 | 72 | 0 | 0.0 | 0.0 | 0.00 | 0.00 | 0.00 | 58 | 965.0 |
| 20260903070304 | 71 | 0 | 0.0 | 0.0 | 0.00 | 0.00 | 0.00 | 59 | 965.0 |
| 20260903065703 | 71 | 0 | 0.0 | 0.0 | 0.00 | 0.00 | 0.00 | 59 | 965.0 |
| 20260903065103 | 71 | 0 | 0.0 | 0.0 | 0.00 | 0.00 | 0.00 | 59 | 965.0 |
| 20260903064502 | 71 | 0 | 0.0 | 0.0 | 0.00 | 0.00 | 0.00 | 61 | 965.0 |
| 20260903063901 | 69 | 0 | 0.0 | 0.0 | 0.00 | 0.00 | 0.00 | 66 | 965.0 |
| 20260903063300 | 69 | 0 | 0.0 | 0.0 | 0.00 | 0.00 | 0.00 | 67 | 965.0 |
| 20260903062700 | 68 | 0 | 0.0 | 0.0 | 0.00 | 0.00 | 0.00 | 68 | 965.0 |
| 20260903062059 | 68 | 0 | 0.0 | 0.0 | 0.00 | 0.00 | 0.00 | 69 | 965.0 |
| 20260903061458 | 68 | 0 | 0.0 | 0.0 | 0.00 | 0.00 | 0.00 | 70 | 965.0 |
| 20260903060857 | 68 | 0 | 0.0 | 0.0 | 0.00 | 0.00 | 0.00 | 71 | 965.0 |
| 20260903060256 | 68 | 0 | 0.0 | 0.0 | 0.00 | 0.00 | 0.00 | 72 | 965.0 |
| 20260903055656 | 67 | 0 | 0.0 | 0.0 | 0.00 | 0.00 | 0.00 | 73 | 965.0 |
| 20260903055055 | 67 | 0 | 0.0 | 0.0 | 0.00 | 0.00 | 0.00 | 72 | 965.0 |
| 20260903054454 | 67 | 0 | 0.0 | 0.0 | 0.00 | 0.00 | 0.00 | 74 | 965.0 |
| 20260903053853 | 67 | 0 | 0.0 | 0.0 | 0.00 | 0.00 | 0.00 | 73 | 965.0 |
| 20260903053253 | 67 | 0 | 0.0 | 0.0 | 0.00 | 0.00 | 0.00 | 74 | 965.0 |
| 20260903052652 | 66 | 0 | 0.0 | 0.0 | 0.00 | 0.00 | 0.00 | 74 | 965.0 |
| 20260903052051 | 67 | 0 | 0.0 | 0.0 | 0.00 | 0.00 | 0.00 | 79 | 965.0 |
| 20260903051450 | 67 | 0 | 0.0 | 0.0 | 0.00 | 0.00 | 0.00 | 78 | 965.0 |
| 20260903050849 | 67 | 0 | 0.0 | 0.0 | 0.00 | 0.00 | 0.00 | 79 | 965.0 |
| 20260903050249 | 67 | 0 | 0.0 | 0.0 | 0.00 | 0.00 | 0.00 | 77 | 965.0 |
| 20260903045648 | 66 | 0 | 0.0 | 0.0 | 0.00 | 0.00 | 0.00 | 78 | 965.0 |
| 20260903045047 | 66 | 0 | 0.0 | 0.0 | 0.00 | 0.00 | 0.00 | 77 | 965.0 |
| 20260903044446 | 66 | 0 | 0.0 | 0.0 | 0.00 | 0.00 | 0.00 | 77 | 965.0 |
| 20260903043846 | 66 | 0 | 0.0 | 0.0 | 0.00 | 0.00 | 0.00 | 77 | 965.0 |
| 20260903043245 | 67 | 0 | 0.0 | 0.0 | 0.00 | 0.00 | 0.00 | 76 | 965.0 |
| 20260903042644 | 66 | 0 | 0.0 | 0.0 | 0.00 | 0.00 | 0.00 | 76 | 965.0 |
| 20260903042043 | 66 | 0 | 0.0 | 0.0 | 0.00 | 0.00 | 0.00 | 76 | 965.0 |
| 20260903041442 | 67 | 0 | 0.0 | 0.0 | 0.00 | 0.00 | 0.00 | 73 | 965.0 |
| 20260903040842 | 67 | 0 | 0.0 | 0.0 | 0.00 | 0.00 | 0.00 | 72 | 964.0 |
| 20260903040241 | 67 | 0 | 0.0 | 0.0 | 0.00 | 0.00 | 0.00 | 72 | 964.0 |
| 20260903035640 | 68 | 0 | 0.0 | 0.0 | 0.00 | 0.00 | 0.00 | 72 | 964.0 |
| 20260903035039 | 68 | 0 | 0.0 | 0.0 | 0.00 | 0.00 | 0.00 | 71 | 965.0 |
| 20260903034438 | 66 | 0 | 0.0 | 0.0 | 0.00 | 0.00 | 0.00 | 71 | 965.0 |
| 20260903033838 | 67 | 0 | 0.0 | 0.0 | 0.00 | 0.00 | 0.00 | 70 | 965.0 |
| 20260903033237 | 68 | 0 | 0.0 | 0.0 | 0.00 | 0.00 | 0.00 | 70 | 965.0 |
| 20260903032636 | 67 | 0 | 0.0 | 0.0 | 0.00 | 0.00 | 0.00 | 70 | 965.0 |
| 20260903032035 | 68 | 0 | 0.0 | 0.0 | 0.00 | 0.00 | 0.00 | 72 | 965.0 |
| 20260903031435 | 68 | 0 | 0.0 | 0.0 | 0.00 | 0.00 | 0.00 | 71 | 964.0 |
| 20260903030834 | 68 | 0 | 0.0 | 0.0 | 0.00 | 0.00 | 0.00 | 71 | 965.0 |
| 20260903030233 | 68 | 0 | 0.0 | 0.0 | 0.00 | 0.00 | 0.00 | 72 | 965.0 |
| 20260903025632 | 68 | 0 | 0.0 | 0.0 | 0.00 | 0.00 | 0.00 | 73 | 964.0 |
| 20260903025031 | 69 | 0 | 0.0 | 0.0 | 0.00 | 0.00 | 0.00 | 71 | 965.0 |
| 20260903024431 | 69 | 0 | 0.0 | 0.0 | 0.00 | 0.00 | 0.00 | 71 | 965.0 |
| 20260903023830 | 69 | 0 | 0.0 | 0.0 | 0.00 | 0.00 | 0.00 | 70 | 965.0 |
| 20260903023229 | 69 | 0 | 0.0 | 0.0 | 0.00 | 0.00 | 0.00 | 70 | 965.0 |
| 20260903022628 | 69 | 0 | 0.0 | 0.0 | 0.00 | 0.00 | 0.00 | 71 | 964.0 |
| 20260903022028 | 69 | 0 | 0.0 | 0.0 | 0.00 | 0.00 | 0.00 | 70 | 965.0 |
| 20260903021427 | 69 | 0 | 0.0 | 0.0 | 0.00 | 0.00 | 0.00 | 70 | 965.0 |
| 20260903020826 | 68 | 0 | 0.0 | 0.0 | 0.00 | 0.00 | 0.00 | 70 | 964.0 |
| 20260903020225 | 68 | 0 | 0.0 | 0.0 | 0.00 | 0.00 | 0.00 | 69 | 964.0 |
| 20260903015624 | 68 | 0 | 0.0 | 0.0 | 0.00 | 0.00 | 0.00 | 70 | 964.0 |
| 20260903015024 | 69 | 0 | 0.0 | 0.0 | 0.00 | 0.00 | 0.00 | 72 | 964.0 |
| 20260903014423 | 68 | 0 | 0.0 | 0.0 | 0.00 | 0.00 | 0.00 | 72 | 964.0 |
| 20260903013822 | 68 | 0 | 0.0 | 0.0 | 0.00 | 0.00 | 0.00 | 73 | 965.0 |
| 20260903013221 | 68 | 0 | 0.0 | 0.0 | 0.00 | 0.00 | 0.00 | 75 | 964.0 |
| 20260903012620 | 69 | 0 | 0.0 | 0.0 | 0.00 | 0.00 | 0.00 | 73 | 964.0 |
| 20260903012020 | 69 | 0 | 0.0 | 0.0 | 0.00 | 0.00 | 0.00 | 73 | 964.0 |
| 20260903011419 | 69 | 0 | 0.0 | 0.0 | 0.00 | 0.00 | 0.00 | 74 | 964.0 |
| 20260903010818 | 69 | 0 | 0.0 | 0.0 | 0.00 | 0.00 | 0.00 | 72 | 964.0 |
| 20260903010217 | 69 | 0 | 0.0 | 0.0 | 0.00 | 0.00 | 0.00 | 72 | 964.0 |
| 20260903005617 | 69 | 0 | 0.0 | 0.0 | 0.00 | 0.00 | 0.00 | 71 | 964.0 |
| 20260903005016 | 69 | 0 | 0.0 | 0.0 | 0.00 | 0.00 | 0.00 | 72 | 964.0 |
| 20260903004415 | 69 | 0 | 0.0 | 0.0 | 0.00 | 0.00 | 0.00 | 71 | 964.0 |
| 20260903003814 | 69 | 0 | 0.0 | 0.0 | 0.00 | 0.00 | 0.00 | 69 | 964.0 |
| 20260903003213 | 70 | 0 | 0.0 | 0.0 | 0.00 | 0.00 | 0.00 | 67 | 964.0 |
| 20260903002613 | 70 | 0 | 0.0 | 0.0 | 0.00 | 0.00 | 0.00 | 67 | 964.0 |
| 20260903002012 | 70 | 0 | 0.0 | 0.0 | 0.00 | 0.00 | 0.00 | 68 | 964.0 |
| 20260903001411 | 70 | 0 | 0.0 | 0.0 | 0.00 | 0.00 | 0.00 | 67 | 964.0 |
| 20260903000810 | 70 | 0 | 0.0 | 0.0 | 0.00 | 0.00 | 0.00 | 65 | 964.0 |
| 20260903000211 | 70 | 0 | 0.0 | 0.0 | 0.00 | 0.00 | 0.00 | 63 | 964.0 |
| 20260902235609 | 70 | 0 | 0.0 | 0.0 | 0.00 | 0.00 | 0.00 | 63 | 964.0 |
| 20260902235008 | 71 | 0 | 0.0 | 0.0 | 0.00 | 0.00 | 0.00 | 62 | 964.0 |
| 20260902234407 | 71 | 0 | 0.0 | 0.0 | 0.00 | 0.00 | 0.00 | 62 | 964.0 |
| 20260902233806 | 71 | 0 | 0.0 | 0.0 | 0.00 | 0.00 | 0.00 | 62 | 964.0 |
| 20260902233206 | 71 | 0 | 0.0 | 0.0 | 0.00 | 0.00 | 0.00 | 63 | 964.0 |
| 20260902232605 | 71 | 0 | 0.0 | 0.0 | 0.00 | 0.00 | 0.00 | 63 | 964.0 |
| 20260902232004 | 71 | 0 | 0.0 | 0.0 | 0.00 | 0.00 | 0.00 | 63 | 964.0 |
| 20260902231403 | 71 | 0 | 0.0 | 0.0 | 0.00 | 0.00 | 0.00 | 62 | 964.0 |
| 20260902230802 | 71 | 0 | 0.0 | 0.0 | 0.00 | 0.00 | 0.00 | 62 | 964.0 |
| 20260902230202 | 71 | 0 | 0.0 | 0.0 | 0.00 | 0.00 | 0.00 | 62 | 964.0 |
| 20260902225601 | 71 | 0 | 0.0 | 0.0 | 0.00 | 0.00 | 0.00 | 63 | 964.0 |
| 20260902225000 | 71 | 0 | 0.0 | 0.0 | 0.00 | 0.00 | 0.00 | 60 | 964.0 |
| 20260902224359 | 72 | 0 | 0.0 | 0.0 | 0.00 | 0.00 | 0.00 | 60 | 964.0 |
| 20260902223759 | 72 | 0 | 0.0 | 0.0 | 0.00 | 0.00 | 0.00 | 60 | 964.0 |
| 20260902223158 | 72 | 0 | 0.0 | 0.0 | 0.00 | 0.00 | 0.00 | 60 | 964.0 |
| 20260902222557 | 72 | 0 | 0.0 | 0.0 | 0.00 | 0.00 | 0.00 | 60 | 964.0 |
| 20260902221956 | 72 | 0 | 0.0 | 0.0 | 0.00 | 0.00 | 0.00 | 60 | 964.0 |
| 20260902221355 | 72 | 0 | 0.0 | 0.0 | 0.00 | 0.00 | 0.00 | 60 | 964.0 |
| 20260902220755 | 72 | 0 | 0.0 | 0.0 | 0.00 | 0.00 | 0.00 | 61 | 964.0 |
| 20260902220154 | 72 | 0 | 0.0 | 0.0 | 0.00 | 0.00 | 0.00 | 59 | 964.0 |
| 20260902215553 | 72 | 0 | 0.0 | 0.0 | 0.00 | 0.00 | 0.00 | 60 | 964.0 |
| 20260902214952 | 72 | 0 | 0.0 | 0.0 | 0.00 | 0.00 | 0.00 | 60 | 964.0 |
| 20260902214351 | 72 | 0 | 0.0 | 0.0 | 0.00 | 0.00 | 0.00 | 60 | 964.0 |
| 20260902213751 | 72 | 0 | 0.0 | 0.0 | 0.00 | 0.00 | 0.00 | 62 | 964.0 |
| 20260902213150 | 72 | 0 | 0.0 | 0.0 | 0.00 | 0.00 | 0.00 | 63 | 964.0 |
| 20260902212549 | 72 | 0 | 0.0 | 0.0 | 0.00 | 0.00 | 0.00 | 62 | 964.0 |
| 20260902211948 | 72 | 0 | 0.0 | 0.0 | 0.00 | 0.00 | 0.00 | 62 | 964.0 |
| 20260902211348 | 72 | 0 | 0.0 | 0.0 | 0.00 | 0.00 | 0.00 | 63 | 964.0 |
| 20260902210747 | 72 | 0 | 0.0 | 0.0 | 0.00 | 0.00 | 0.00 | 61 | 964.0 |
| 20260902210146 | 72 | 0 | 0.0 | 0.0 | 0.00 | 0.00 | 0.00 | 61 | 964.0 |
| 20260902205545 | 72 | 0 | 0.0 | 0.0 | 0.00 | 0.00 | 0.00 | 62 | 964.0 |
| 20260902204344 | 73 | 0 | 0.0 | 0.0 | 0.00 | 0.00 | 0.00 | 59 | 963.0 |
| 20260902203743 | 73 | 0 | 0.0 | 0.0 | 0.00 | 0.00 | 0.00 | 61 | 963.0 |
| 20260902203142 | 73 | 0 | 0.0 | 0.0 | 0.00 | 0.00 | 0.00 | 61 | 963.0 |
| 20260902202541 | 73 | 0 | 0.0 | 0.0 | 0.00 | 0.00 | 0.00 | 61 | 963.0 |
| 20260902201940 | 73 | 0 | 0.0 | 0.0 | 0.00 | 0.00 | 0.00 | 60 | 963.0 |
| 20260902201340 | 73 | 0 | 0.0 | 0.0 | 0.00 | 0.00 | 0.00 | 58 | 963.0 |
| 20260902200739 | 74 | 0 | 0.0 | 0.0 | 0.00 | 0.00 | 0.00 | 58 | 963.0 |